Location: Melbourne
(37.8170°S, 144.9670°E)
Time: 03:19:43
(UTC+11:00)

Vanguard 1 Rocket - Visible Passes

Search period start: 25 February 2018 00:00
Search period end: 07 March 2018 00:00
Orbit: 655 x 4222 km, 34.3° (Epoch: 23 February)

Date Brightness Start Highest point End Pass type
(mag) Time Alt. Az. Time Alt. Az. Time Alt. Az.
02 Mar 11.2 06:20:58 10° N 06:29:36 16° NNE 06:36:04 10° ENE visible
04 Mar 11.0 06:20:10 10° NNW 06:32:53 23° NNE 06:41:21 10° ENE visible
05 Mar 11.4 05:10:01 10° N 05:19:58 16° NE 05:27:39 10° ENE visible
06 Mar 10.7 06:20:26 10° NNW 06:36:05 30° NNE 06:45:42 10° E visible
